Вернуться в каталог

TAURUS 3

АктивенСвязьVLEO
NORAD 66296·PAYLOAD·🇹🇷 Turkey
Это название спутника еще не подтверждено официальными источниками.

Запущен Nov 2, 2025 с Cape Canaveral Space Force Station

Loading…

Ближайшие Пролёты (ближайшие 24 часа)

TLE

СвежийSource: Space-Track

Эпоха: Sep 14, 2026, 06:35 UTC

1 66296U 25248D   26257.27468566  .00005184  00000-0  23065-3 0  9993
2 66296  45.4038   1.4366 0004615 227.5069 132.5429 15.22672253 48106

Отслеживайте TAURUS 3 в реальном времени с AllMySat

Download on the App Store